TimePDT,TemperatureF,Dew PointF,Humidity,Sea Level PressureIn,VisibilityMPH,Wind Direction,Wind SpeedMPH,Gust SpeedMPH,PrecipitationIn,Events,Conditions,WindDirDegrees,DateUTC
12:52 AM,57.0,42.1,57,29.86,-9999.0,ENE,8.1,-,N/A,,Unknown,60,2012-09-29 07:52:00
1:52 AM,57.9,41.0,53,29.87,-9999.0,NE,5.8,-,N/A,,Unknown,40,2012-09-29 08:52:00
2:52 AM,55.9,42.1,60,29.87,-9999.0,ENE,6.9,-,N/A,,Unknown,60,2012-09-29 09:52:00
3:52 AM,54.0,42.1,64,29.88,-9999.0,NE,6.9,-,N/A,,Unknown,40,2012-09-29 10:52:00
4:52 AM,57.0,42.1,57,29.88,-9999.0,NE,4.6,-,N/A,,Unknown,50,2012-09-29 11:52:00
5:52 AM,55.9,42.1,60,29.91,-9999.0,NE,6.9,-,N/A,,Unknown,50,2012-09-29 12:52:00
6:52 AM,55.0,42.1,62,29.92,-9999.0,NNE,4.6,-,N/A,,Unknown,30,2012-09-29 13:52:00
7:52 AM,64.9,45.0,48,29.93,-9999.0,NE,5.8,-,N/A,,Unknown,50,2012-09-29 14:52:00
8:52 AM,78.1,46.0,32,29.93,-9999.0,Calm,Calm,-,N/A,,Unknown,0,2012-09-29 15:52:00
9:52 AM,84.0,44.1,25,29.92,-9999.0,South,3.5,-,N/A,,Unknown,190,2012-09-29 16:52:00
10:52 AM,90.0,39.0,17,29.91,-9999.0,Variable,4.6,-,N/A,,Unknown,0,2012-09-29 17:52:00
11:52 AM,90.0,39.0,17,29.90,-9999.0,South,9.2,-,N/A,,Unknown,190,2012-09-29 18:52:00
12:52 PM,91.0,39.9,17,29.88,-9999.0,SW,10.4,-,N/A,,Unknown,230,2012-09-29 19:52:00
1:52 PM,91.0,39.0,16,29.87,-9999.0,WSW,8.1,-,N/A,,Unknown,250,2012-09-29 20:52:00
2:52 PM,89.1,39.9,18,29.86,-9999.0,West,10.4,-,N/A,,Unknown,270,2012-09-29 21:52:00
3:52 PM,90.0,43.0,19,29.85,-9999.0,North,3.5,-,N/A,,Unknown,360,2012-09-29 22:52:00
4:18 PM,89.6,39.2,17,29.94,-9999.0,WNW,13.8,-,N/A,,Unknown,290,2012-09-29 23:18:00
4:52 PM,88.0,39.9,18,29.85,-9999.0,WNW,13.8,20.7,N/A,,Unknown,290,2012-09-29 23:52:00
5:52 PM,84.0,41.0,22,29.87,-9999.0,WNW,11.5,-,N/A,,Unknown,290,2012-09-30 00:52:00
6:52 PM,81.0,41.0,24,29.90,-9999.0,Variable,3.5,-,N/A,,Unknown,0,2012-09-30 01:52:00
7:52 PM,73.0,41.0,31,29.92,-9999.0,Calm,Calm,-,N/A,,Unknown,0,2012-09-30 02:52:00
8:52 PM,66.0,41.0,40,29.93,-9999.0,ENE,6.9,-,N/A,,Unknown,70,2012-09-30 03:52:00
9:52 PM,62.1,41.0,46,29.94,-9999.0,ENE,10.4,-,N/A,,Unknown,70,2012-09-30 04:52:00
10:52 PM,59.0,39.9,49,29.94,-9999.0,ENE,5.8,-,N/A,,Unknown,60,2012-09-30 05:52:00
11:52 PM,57.0,39.9,53,29.94,-9999.0,NE,5.8,-,N/A,,Unknown,50,2012-09-30 06:52:00